Nagpur Sonegaon, India

11:38 PM IST on June 28, 2017 (GMT +0530)
Nagpur

Weather History for VANP - February, 2013

Change the Weather History Date:

Tuesday, February 12, 2013

  Actual Average Record
Temperature  
Mean Temperature 78 °F -  
Max Temperature 92 °F 92 °F - ()
Min Temperature 65 °F 62 °F - ()
Cooling Degree Days 14    
Growing Degree Days 28 (Base 50)    
Moisture  
Dew Point 62 °F    
Average Humidity 55    
Maximum Humidity 87    
Minimum Humidity 30    
Precipitation  
Precipitation 0.00 in 0.03 in - ()
Sea Level Pressure  
Sea Level Pressure 29.94 in    
Wind  
Wind Speed 3 mph ()    
Max Wind Speed 10 mph    
Max Gust Speed -    
Visibility 2.5 miles    
Events      
T = Trace of Precipitation, MM = Missing Value Source: Averaged Metar Reports

Daily Weather History Graph

Daily Weather History Graph

Search for Another Location

Airport or City:

Trip Planner

Search our weather history database for the weather conditions in past years. The results will help you decide how hot, cold, wet, or windy it might be!

Date:

Astronomy

Feb. 12, 2013 Rise Set
Actual Time 6:45 AM IST 6:10 PM IST
Civil Twilight 6:23 AM IST 6:33 PM IST
Nautical Twilight 5:56 AM IST 6:59 PM IST
Astronomical Twilight 5:30 AM IST 7:25 PM IST
Moon 7:50 AM IST (2/12) 8:14 PM IST (2/12)
Length of Visible Light 12h 10m
Length of Day
11h 24m
Waxing Crescent, 5% of the Moon is Illuminated
Feb 12
Waxing Crescent
Feb 18
First Quarter
Feb 26
Full
Mar 5
Last Quarter
Mar 12
New

Hourly Weather History & Observations

Time (IST) Temp. Heat Index Dew Point Humidity Pressure Visibility Wind Dir Wind Speed Gust Speed Precip Events Conditions
12:10 AM 71.6 °F - 59.0 °F 64% 29.95 in 2.5 mi Calm Calm - N/A   Haze
1:10 AM 73.4 °F - 59.0 °F 61% 29.95 in 2.5 mi Calm Calm - N/A   Haze
2:10 AM 71.6 °F - 57.2 °F 60% 29.95 in 2.5 mi Calm Calm - N/A   Haze
2:30 AM 67 °F - 64 °F 87% 29.93 in 1 mi NW 3.5 mph - -   Haze
3:10 AM 71.6 °F - 59.0 °F 64% 29.95 in 2.5 mi Calm Calm - N/A   Haze
4:10 AM 69.8 °F - 59.0 °F 68% 29.95 in 2.5 mi NNW 2.3 mph - N/A   Haze
5:10 AM 71.6 °F - 59.0 °F 64% 29.95 in 2.5 mi NW 10.4 mph - N/A   Haze
5:30 AM 69 °F - 64 °F 81% 29.94 in 2 mi NW 9.2 mph - -   Haze
6:10 AM 71.6 °F - 59.0 °F 64% 29.98 in 2.5 mi NW 4.6 mph - N/A   Haze
7:10 AM 71.6 °F - 59.0 °F 64% 29.98 in 2.5 mi North 5.8 mph - N/A   Haze
8:10 AM 73.4 °F - 59.0 °F 61% 29.98 in 2.5 mi NNE 4.6 mph - N/A   Haze
8:30 AM 73 °F - 66 °F 73% 29.99 in 1 mi NW 3.5 mph - -   Haze
9:10 AM 78.8 °F - 60.8 °F 54% 30.04 in 2.5 mi North 3.5 mph - N/A   Haze
11:10 AM 89.6 °F 89.5 °F 60.8 °F 38% 30.01 in 3.1 mi ENE 4.6 mph - N/A   Haze
11:30 AM 87 °F - 74 °F 57% 29.95 in 2 mi NE 3.5 mph - -   Haze
12:10 PM 91.4 °F 90.7 °F 59.0 °F 34% 29.98 in 3.1 mi East 3.5 mph - N/A   Haze
1:10 PM 95.0 °F 94.4 °F 59.0 °F 30% 29.95 in 3.1 mi ESE 3.5 mph - N/A   Haze
2:10 PM 95.0 °F 94.4 °F 59.0 °F 30% 29.92 in 3.7 mi East 3.5 mph - N/A   Unknown
2:30 PM 91 °F - 76 °F 53% 29.86 in 2 mi East 3.5 mph - -   Clear
3:10 PM 95.0 °F 95.2 °F 60.8 °F 32% 29.92 in 3.7 mi ESE 3.5 mph - N/A   Unknown
4:10 PM 91.4 °F 91.4 °F 60.8 °F 36% 29.89 in 3.7 mi ESE 3.5 mph - N/A   Unknown
5:30 PM 85 °F - 71 °F 54% 29.84 in 2 mi NE 3.5 mph - -   Haze
6:10 PM 89.6 °F 88.1 °F 57.2 °F 33% 29.89 in 3.1 mi ENE 3.5 mph - N/A   Haze
7:10 PM 82.4 °F 82.5 °F 59.0 °F 45% 29.92 in 2.5 mi Calm Calm - N/A   Haze
8:10 PM 80.6 °F 81.1 °F 59.0 °F 48% 29.92 in 2.5 mi East 3.5 mph - N/A   Haze
8:30 PM 77 °F - 69 °F 69% 29.91 in 2 mi East 2.3 mph - -   Haze
9:10 PM 80.6 °F 80.8 °F 57.2 °F 45% 29.95 in 2.5 mi East 3.5 mph - N/A   Haze
11:10 PM 77.0 °F - 53.6 °F 44% 29.95 in 2.5 mi Calm Calm - N/A   Haze
11:30 PM 72 °F - 65 °F 74% 29.94 in 2 mi Calm Calm - -   Haze